Home > Weather > Varel > Past weeks

Flag for Germany Weather for the Past 2 Weeks in Varel, Lower Saxony, Germany

Now
52 °F

Passing clouds.


Feels Like: 52 °F
Forecast: 44 / 53 °F
Wind: No wind

Location: Wittmundhaven

Current Time: May 3, 2016 at 1:28:35 AM

Latest Report: May 3, 2016 at 12:20 AM


Visibility: N/A

Pressure: 30.04 "Hg

Humidity: 77%

Dew Point: 45 °F

Location of VarelLocation

Historic Weather in Varel — Graph

°F

Varel Temperature Yesterday

Maximum temperature yesterday: 64 °F (at 2:20 PM)
Minimum temperature yesterday: 34 °F (at 5:03 AM)
Average temperature yesterday: 50 °F

High & Low Weather Summary for the Past Weeks

 TemperatureHumidityPressure
High64 °F (May 2, 2:20 PM)100% (Apr 21, 4:20 AM)30.48 "Hg (Apr 21, 4:20 AM)
Low30 °F (Apr 21, 5:20 AM)41% (Apr 21, 4:20 PM)29.33 "Hg (Apr 26, 4:20 PM)
Average42 °F78%29.98 "Hg
* Reported Apr 17 11:20 PM — May 2 11:20 PM, Varel, Weather by CustomWeather, © 2016

Note: Actual official high and low records may vary slightly from our data, if they occured in-between our weather recording intervals... More about our weather records

Advertising

Varel Weather History for the Previous 24 Hours

Scroll right to see more
 ConditionsComfort  
Time TempWeatherWind HumidityBarometerVisibility
11:20 PM
Mon, May 2
52 °FPartly cloudy.No wind77%30.04 "HgN/A
10:20 PM54 °FPartly cloudy.2 mph72%30.07 "HgN/A
9:20 PM54 °FBroken clouds.5 mph72%30.07 "HgN/A
8:20 PM61 °FBroken clouds.3 mph59%30.07 "HgN/A
7:20 PM63 °FBroken clouds.3 mph56%30.07 "HgN/A
6:20 PM64 °FPartly sunny.8 mph49%30.09 "HgN/A
5:20 PM64 °FPartly sunny.9 mph46%30.09 "HgN/A
4:20 PM64 °FPartly sunny.12 mph49%30.12 "HgN/A
3:20 PM64 °FScattered clouds.12 mph49%30.15 "HgN/A
2:20 PM64 °FPassing clouds.13 mph49%30.18 "HgN/A
1:20 PM61 °FScattered clouds.10 mph55%30.21 "HgN/A
12:20 PM59 °FScattered clouds.12 mph59%30.21 "HgN/A
11:20 AM59 °FScattered clouds.9 mph59%30.24 "HgN/A
10:20 AM55 °FScattered clouds.7 mph67%30.24 "HgN/A
9:20 AM50 °FScattered clouds.5 mph82%30.27 "HgN/A
8:20 AM45 °FPassing clouds.3 mph87%30.27 "HgN/A
6:54 AM37 °FFog.No wind93%30.30 "Hg1 mi
6:20 AM36 °FFog.No wind93%30.30 "HgN/A
5:20 AM36 °FFog.No wind93%30.30 "HgN/A
5:03 AM34 °FFog.No wind100%30.30 "HgN/A
4:20 AM36 °FChilly.No wind93%30.30 "Hg0 mi
3:20 AM36 °FChilly.No wind93%30.33 "Hg2 mi
2:20 AM36 °FChilly.No wind93%30.33 "Hg3 mi
1:20 AM37 °FChilly.No wind93%30.33 "Hg1 mi
Weather by CustomWeather, © 2016

See weather overviewHow to use our weather pages